Simultaneous Nadir Overpasses (SNOs) Predictions

Prediction of SNOs between GOES-14 and AQUA Satellite Orbit:

Table of predicted SNOs for the next 14.0 days since TLE Epoch: 7/26/2019
Index Date Time (GOES-14) GOES-14 Lat,Lon AQUA Lat,Lon Distance(km) Time Diff (sec)
1 07/28/2019 08:23:31 -0.28,-104.63 -0.90,-101.80 322.67 80
2 07/28/2019 20:42:15 0.30,-104.81 -0.18,-106.99 248.56 80
3 07/30/2019 20:32:44 0.30,-104.80 0.48,-104.04 86.11 80
4 08/01/2019 20:20:32 0.30,-104.78 1.08,-101.08 420.83 80
5 08/02/2019 08:39:08 -0.33,-104.60 0.02,-106.24 185.84 80
6 08/04/2019 08:29:36 -0.33,-104.59 -0.59,-103.28 149.07 80
7 08/04/2019 20:48:21 0.34,-104.76 -0.43,-108.49 423.40 80
8 08/06/2019 08:17:25 -0.32,-104.58 -1.25,-100.33 484.16 80
9 08/06/2019 20:36:09 0.34,-104.75 0.18,-105.52 88.01 80
10 08/08/2019 20:26:37 0.34,-104.74 0.79,-102.56 247.23 80
11 08/09/2019 08:47:52 -0.37,-104.58 0.31,-107.72 357.77 80




NCC Satellite Simultaneous Nadir Overpasses (SNOs) Prediction Service
